Weather History for Montevideo, MN

Change the Weather History Date:

Friday, June 28, 2013

  Actual Average Record
Temperature  
Mean Temperature 73 °F -  
Max Temperature 80 °F 84 °F 101 °F (1988)
Min Temperature 66 °F 59 °F 49 °F (1951)
Cooling Degree Days 8    
Growing Degree Days 23 (Base 50)    
Moisture  
Dew Point 57 °F    
Average Humidity 57    
Maximum Humidity 73    
Minimum Humidity 39    
Precipitation  
Precipitation 0.00 in - - ()
Sea Level Pressure  
Sea Level Pressure 29.89 in    
Wind  
Wind Speed 13 mph (North)    
Max Wind Speed 29 mph    
Max Gust Speed 39 mph    
Visibility 10 miles    
Events      
Averages and records for this station are not official NWS values.
T = Trace of Precipitation, MM = Missing Value Source: NWS Daily Summary

Daily Weather History Graph

Daily Weather History Graph

Search for Another Location

Airport:

Trip Planner

Search our weather history database for the weather conditions in past years. The results will help you decide how hot, cold, wet, or windy it might be!

Date:

Astronomy

Jun. 28, 2013 Rise Set
Actual Time 5:38 AM CDT 9:13 PM CDT
Civil Twilight 5:01 AM CDT 9:50 PM CDT
Nautical Twilight 4:12 AM CDT 10:40 PM CDT
Astronomical Twilight 3:06 AM CDT 11:44 PM CDT
Moon No Moon Rise 12:04 PM CDT (6/28)
Length of Visible Light 16h 49m
Length of Day
15h 34m
Waning Gibbous, 66% of the Moon is Illuminated
Jun 28
Waning Gibbous
Jun 29
Last Quarter
Jul 8
New
Jul 15
First Quarter
Jul 22
Full

Hourly Weather History & Observations

Time (CDT) Temp. Heat Index Dew Point Humidity Pressure Visibility Wind Dir Wind Speed Gust Speed Precip Events Conditions
12:14 AM 71.6 °F - 57.2 °F 60% - 10.0 mi NNW 5.8 mph - N/A   Clear
12:34 AM 69.8 °F - 57.2 °F 64% - 10.0 mi NNW 5.8 mph - N/A   Clear
12:54 AM 69.8 °F - 57.2 °F 64% - 10.0 mi NNW 5.8 mph - N/A   Clear
1:34 AM 69.8 °F - 59.0 °F 68% - 10.0 mi NW 5.8 mph - N/A   Clear
1:54 AM 68.0 °F - 59.0 °F 73% - 10.0 mi NW 5.8 mph - N/A   Clear
2:14 AM 68.0 °F - 57.2 °F 68% - 10.0 mi NW 4.6 mph - N/A   Clear
2:34 AM 66.2 °F - 57.2 °F 73% - 10.0 mi NW 5.8 mph - N/A   Clear
2:54 AM 66.2 °F - 57.2 °F 73% - 10.0 mi WNW 4.6 mph - N/A   Clear
3:14 AM 66.2 °F - 57.2 °F 73% - 10.0 mi NW 5.8 mph - N/A   Clear
3:34 AM 68.0 °F - 57.2 °F 68% - 10.0 mi NNW 8.1 mph - N/A   Clear
3:54 AM 66.2 °F - 57.2 °F 73% - 10.0 mi NW 5.8 mph - N/A   Clear
4:14 AM 66.2 °F - 57.2 °F 73% - 10.0 mi NNW 6.9 mph - N/A   Clear
4:34 AM 66.2 °F - 57.2 °F 73% - 10.0 mi NNW 6.9 mph - N/A   Clear
4:54 AM 66.2 °F - 57.2 °F 73% - 10.0 mi NNW 8.1 mph - N/A   Clear
5:14 AM 66.2 °F - 55.4 °F 68% - 10.0 mi NNW 9.2 mph - N/A   Clear
5:34 AM 66.2 °F - 55.4 °F 68% - 10.0 mi NNW 10.4 mph - N/A   Clear
5:54 AM 66.2 °F - 57.2 °F 73% - 10.0 mi NNW 10.4 mph - N/A   Clear
6:14 AM 68.0 °F - 57.2 °F 68% - 10.0 mi NNW 10.4 mph - N/A   Clear
6:34 AM 68.0 °F - 57.2 °F 68% - 10.0 mi NNW 10.4 mph 17.3 mph N/A   Clear
6:54 AM 68.0 °F - 57.2 °F 68% - 10.0 mi NNW 10.4 mph - N/A   Clear
7:14 AM 69.8 °F - 57.2 °F 64% - 10.0 mi North 13.8 mph - N/A   Clear
7:34 AM 69.8 °F - 57.2 °F 64% - 10.0 mi North 13.8 mph 20.7 mph N/A   Clear
7:54 AM 69.8 °F - 57.2 °F 64% - 10.0 mi North 18.4 mph 25.3 mph N/A   Clear
8:14 AM 71.6 °F - 59.0 °F 64% - 10.0 mi North 15.0 mph 19.6 mph N/A   Clear
8:34 AM - - - N/A% - - North - - N/A   Unknown
8:54 AM 71.6 °F - 60.8 °F 69% 29.91 in 10.0 mi North 15.0 mph 25.3 mph N/A   Unknown
9:14 AM 73.4 °F - 59.0 °F 61% 29.91 in 10.0 mi North 18.4 mph 25.3 mph N/A   Clear
9:34 AM 73.4 °F - 60.8 °F 65% 29.91 in 10.0 mi North 17.3 mph 28.8 mph N/A   Clear
9:54 AM 73.4 °F - 59.0 °F 61% 29.90 in 10.0 mi North 23.0 mph 31.1 mph N/A   Clear
10:14 AM 75.2 °F - 57.2 °F 53% 29.90 in 10.0 mi North 24.2 mph 31.1 mph N/A   Clear
10:34 AM 75.2 °F - 57.2 °F 53% 29.90 in 10.0 mi North 19.6 mph 35.7 mph N/A   Clear
10:54 AM 75.2 °F - 57.2 °F 53% 29.89 in 10.0 mi North 24.2 mph 36.8 mph N/A   Clear
11:14 AM 75.2 °F - 57.2 °F 53% 29.90 in 10.0 mi North 23.0 mph 31.1 mph N/A   Scattered Clouds
11:34 AM 75.2 °F - 57.2 °F 53% 29.90 in 10.0 mi North 24.2 mph 33.4 mph N/A   Scattered Clouds
11:54 AM 75.2 °F - 57.2 °F 53% 29.90 in 10.0 mi North 25.3 mph 35.7 mph N/A   Mostly Cloudy
12:14 PM 77.0 °F - 57.2 °F 50% 29.91 in 10.0 mi North 21.9 mph 35.7 mph N/A   Scattered Clouds
12:34 PM 77.0 °F - 57.2 °F 50% 29.90 in 10.0 mi North 25.3 mph 33.4 mph N/A   Scattered Clouds
12:54 PM 78.8 °F - 57.2 °F 47% 29.90 in 10.0 mi North 21.9 mph 27.6 mph N/A   Scattered Clouds
1:14 PM 78.8 °F - 55.4 °F 44% 29.90 in 10.0 mi North 19.6 mph 33.4 mph N/A   Scattered Clouds
1:33 PM 78.8 °F - 55.4 °F 44% 29.90 in 10.0 mi North 25.3 mph 34.5 mph N/A   Scattered Clouds
1:54 PM 78.8 °F - 57.2 °F 47% 29.90 in 10.0 mi North 21.9 mph 35.7 mph N/A   Scattered Clouds
2:14 PM 78.8 °F - 57.2 °F 47% 29.90 in 10.0 mi North 26.5 mph 33.4 mph N/A   Mostly Cloudy
2:33 PM 78.8 °F - 57.2 °F 47% 29.90 in 10.0 mi North 20.7 mph 32.2 mph N/A   Mostly Cloudy
2:54 PM 78.8 °F - 57.2 °F 47% 29.90 in 10.0 mi North 21.9 mph 32.2 mph N/A   Scattered Clouds
3:14 PM 78.8 °F - 57.2 °F 47% 29.90 in 10.0 mi North 24.2 mph 33.4 mph N/A   Scattered Clouds
3:34 PM 80.6 °F 80.5 °F 55.4 °F 42% 29.89 in 10.0 mi North 25.3 mph 32.2 mph N/A   Mostly Cloudy
3:54 PM 80.6 °F 80.5 °F 55.4 °F 42% 29.89 in 10.0 mi North 25.3 mph 35.7 mph N/A   Scattered Clouds
4:14 PM 80.6 °F 80.5 °F 55.4 °F 42% 29.89 in 10.0 mi North 23.0 mph 35.7 mph N/A   Scattered Clouds
4:34 PM 80.6 °F 80.5 °F 55.4 °F 42% 29.89 in 10.0 mi North 26.5 mph 36.8 mph N/A   Scattered Clouds
4:54 PM 80.6 °F 80.5 °F 55.4 °F 42% 29.89 in 10.0 mi North 28.8 mph 35.7 mph N/A   Scattered Clouds
5:14 PM 80.6 °F 80.5 °F 55.4 °F 42% 29.89 in 10.0 mi North 26.5 mph 29.9 mph N/A   Scattered Clouds
5:34 PM 80.6 °F 80.5 °F 55.4 °F 42% 29.89 in 10.0 mi North 25.3 mph 36.8 mph N/A   Scattered Clouds
5:54 PM 80.6 °F 80.3 °F 53.6 °F 39% 29.88 in 10.0 mi North 28.8 mph 39.1 mph N/A   Clear
6:14 PM 80.6 °F 80.5 °F 55.4 °F 42% 29.88 in 10.0 mi NNE 23.0 mph 35.7 mph N/A   Clear
6:34 PM 80.6 °F 80.5 °F 55.4 °F 42% 29.87 in 10.0 mi North 23.0 mph 32.2 mph N/A   Clear
6:54 PM 78.8 °F - 55.4 °F 44% 29.87 in 10.0 mi North 23.0 mph 32.2 mph N/A   Clear
7:14 PM 78.8 °F - 55.4 °F 44% 29.87 in 10.0 mi North 19.6 mph 28.8 mph N/A   Clear
7:34 PM 78.8 °F - 55.4 °F 44% 29.87 in 10.0 mi North 24.2 mph 34.5 mph N/A   Clear
7:53 PM 78.8 °F - 55.4 °F 44% 29.87 in 10.0 mi North 21.9 mph 29.9 mph N/A   Clear
8:14 PM 78.8 °F - 57.2 °F 47% 29.88 in 10.0 mi North 16.1 mph 23.0 mph N/A   Clear
8:34 PM 77.0 °F - 57.2 °F 50% 29.88 in 10.0 mi North 15.0 mph 21.9 mph N/A   Clear
8:54 PM 75.2 °F - 57.2 °F 53% 29.88 in 10.0 mi North 12.7 mph - N/A   Clear
9:14 PM 75.2 °F - 57.2 °F 53% 29.88 in 10.0 mi North 15.0 mph 19.6 mph N/A   Clear
9:34 PM 73.4 °F - 57.2 °F 57% 29.89 in 10.0 mi NNE 12.7 mph 17.3 mph N/A   Clear
9:54 PM 73.4 °F - 57.2 °F 57% 29.88 in 10.0 mi North 12.7 mph 17.3 mph N/A   Clear
10:14 PM 73.4 °F - 57.2 °F 57% 29.89 in 10.0 mi North 9.2 mph 16.1 mph N/A   Clear
10:34 PM 71.6 °F - 59.0 °F 64% 29.89 in 10.0 mi North 8.1 mph - N/A   Clear
10:54 PM 71.6 °F - 59.0 °F 64% 29.89 in 10.0 mi North 6.9 mph - N/A   Clear
11:14 PM 69.8 °F - 59.0 °F 68% 29.89 in 10.0 mi North 8.1 mph - N/A   Clear
11:34 PM 69.8 °F - 59.0 °F 68% 29.88 in 10.0 mi North 8.1 mph - N/A   Clear
11:54 PM 69.8 °F - 59.0 °F 68% 29.88 in 10.0 mi North 10.4 mph - N/A   Clear